Waarnemingen

Advertentie
Mijn weer
St-Girons, Frankrijk (7627): temperatuur & dauwpunt: 23.03.2017 21:00:00 - 29.03.2017 21:00:00 (CEST)St-Girons, Frankrijk (7627): temperatuur 5cm: 23.03.2017 21:00:00 - 29.03.2017 21:00:00 (CEST)St-Girons, Frankrijk (7627): temperatuur -20cm & temperatuur -100cm: 23.03.2017 21:00:00 - 29.03.2017 21:00:00 (CEST)St-Girons, Frankrijk (7627): windsnelheid & windstoten: 23.03.2017 21:00:00 - 29.03.2017 21:00:00 (CEST)St-Girons, Frankrijk (7627): windrichting: 23.03.2017 21:00:00 - 29.03.2017 21:00:00 (CEST)St-Girons, Frankrijk (7627): luchtdruk: 23.03.2017 21:00:00 - 29.03.2017 21:00:00 (CEST)St-Girons, Frankrijk (7627): zicht: 23.03.2017 21:00:00 - 29.03.2017 21:00:00 (CEST)St-Girons, Frankrijk (7627): Zonneschijnduur: 23.03.2017 21:00:00 - 29.03.2017 21:00:00 (CEST)St-Girons, Frankrijk (7627): neerslag: 23.03.2017 21:00:00 - 29.03.2017 21:00:00 (CEST)
Datum & Tijd tt [°C] td [°C] tt 5cm [°C] tt -20cm [°C] tt -100cm [°C] ff [km/u] ff [kn] fx [km/u] fx [kn] dd ppp [hPa] vv [km] sd [min] rr [mm]
29.03.2017 21:00:00 - - - - - - - - - - - - - -
29.03.2017 20:00:00 18,0 4,9 14,1 10,8 10,1 4 2 13 7 NNO 1023,3 20 57 0,0
29.03.2017 19:00:00 19,9 5,2 23,7 10,9 10,1 7 4 19 11 NNO 1022,6 20 60 0,0
29.03.2017 18:00:00 20,3 5,1 26,4 10,8 10,1 14 7 22 12 NO 1022,4 20 60 0,0
29.03.2017 17:00:00 21,2 4,7 28,8 10,6 10,1 9 5 21 11 NNO 1022,6 18 60 0,0
29.03.2017 16:00:00 21,3 4,8 28,7 10,3 10,1 10 5 21 12 NNO 1023,1 20 60 0,0
29.03.2017 15:00:00 20,7 5,5 28,6 10,3 10,1 12 6 22 12 NNO 1024,0 20 60 0,0
29.03.2017 14:00:00 20,1 2,4 28,7 10,4 10,1 3 2 13 7 NNO 1025,2 20 60 0,0
29.03.2017 13:00:00 19,4 4,7 26,6 10,2 10,1 6 3 18 10 ZO 1026,0 20 60 0,0
29.03.2017 12:00:00 18,3 7,1 23,6 10,4 10,1 6 4 13 7 OZO 1026,8 20 60 0,0
29.03.2017 11:00:00 16,1 6,2 17,3 10,4 10,1 6 3 17 9 ZO 1027,5 20 60 0,0
29.03.2017 10:00:00 12,6 6,0 9,9 10,5 10,1 11 6 24 13 ZO 1027,9 20 60 0,0
29.03.2017 09:00:00 9,2 4,4 6,8 10,6 10,1 16 9 28 15 ZO 1028,3 20 57 0,0
29.03.2017 08:00:00 8,2 4,0 5,6 10,7 10,1 17 9 28 15 ZZO 1028,3 20 0 0,0
29.03.2017 07:00:00 7,4 4,2 1,3 10,7 10,1 14 8 23 12 ZO 1028,2 20 0 0,0
29.03.2017 06:00:00 5,8 4,0 1,2 10,8 10,1 0 0 11 6 N 1028,4 20 0 0,0
29.03.2017 05:00:00 6,6 3,7 3,5 10,8 10,1 3 2 19 11 Z 1028,4 20 0 0,0
29.03.2017 04:00:00 9,1 4,9 6,3 10,8 10,1 13 7 21 11 ZO 1028,2 20 0 0,0
29.03.2017 03:00:00 8,3 4,9 6,0 10,9 10,1 10 5 20 11 ZZO 1028,8 20 0 0,0
29.03.2017 02:00:00 8,6 5,5 4,0 10,9 10,1 10 5 17 9 ZO 1029,1 20 0 0,0
29.03.2017 01:00:00 8,1 5,4 3,5 10,9 10,1 3 2 12 7 ZZO 1029,4 20 0 0,0
29.03.2017 00:00:00 8,1 5,4 3,4 10,8 10,1 3 2 8 4 Z 1029,3 20 0 0,0
28.03.2017 23:00:00 10,1 6,1 5,7 10,7 10,1 3 2 8 4 Z 1028,5 20 0 0,0
28.03.2017 22:00:00 12,1 6,6 8,7 10,0 10,1 4 2 8 4 ZZO 1027,7 20 0 0,0
28.03.2017 21:00:00 14,9 5,9 10,8 10,1 10,1 0 0 9 5 N 1026,8 20 0 0,0
28.03.2017 20:00:00 15,7 5,9 13,8 10,0 10,1 5 3 13 7 NNO 1026,0 20 0 0,0
28.03.2017 19:00:00 16,9 5,8 16,7 10,1 10,1 6 4 18 10 N 1025,2 20 34 0,0
28.03.2017 18:00:00 17,4 5,3 17,6 9,9 10,1 5 3 20 11 N 1024,7 20 9 0,0
28.03.2017 17:00:00 19,1 5,9 25,2 9,8 10,1 5 3 18 10 N 1024,4 20 56 0,0
28.03.2017 16:00:00 19,3 6,1 22,6 9,6 10,1 3 2 23 12 NO 1024,6 20 56 0,0
28.03.2017 15:00:00 17,0 5,6 18,7 9,4 10,1 12 6 27 15 NNW 1025,4 20 15 0,0
28.03.2017 14:00:00 18,3 6,8 23,6 9,6 10,1 8 5 18 10 N 1025,5 20 55 0,0
28.03.2017 13:00:00 18,1 6,6 24,3 9,5 10,1 3 1 13 7 W 1025,8 20 60 0,0
28.03.2017 12:00:00 16,3 4,0 23,0 9,1 10,1 5 3 10 5 N 1026,1 20 60 0,0
28.03.2017 11:00:00 14,7 4,1 15,4 9,7 10,1 4 2 12 6 OZO 1026,1 20 60 0,0
28.03.2017 10:00:00 9,8 4,4 6,2 9,8 10,1 2 1 8 4 W 1026,5 20 60 0,0
28.03.2017 09:00:00 5,4 4,0 -0,1 9,8 10,1 0 0 6 3 N 1026,7 20 55 0,0
28.03.2017 08:00:00 2,8 0,7 -0,7 9,9 10,1 3 1 10 6 Z 1026,6 20 0 0,0
28.03.2017 07:00:00 3,4 2,2 -0,4 10,0 10,1 4 2 13 7 ZZO 1026,1 20 0 0,0
28.03.2017 06:00:00 3,7 2,2 -1,1 10,0 10,1 8 4 13 7 ZZO 1025,6 20 0 0,0
28.03.2017 05:00:00 3,7 2,7 -0,5 10,1 10,1 2 1 6 3 WNW 1025,4 20 0 0,0
28.03.2017 04:00:00 4,4 3,4 0,1 10,2 10,1 3 2 9 5 NW 1025,0 20 0 0,0
28.03.2017 03:00:00 4,3 3,4 0,4 10,2 10,1 0 0 5 3 N 1024,9 20 0 0,0
28.03.2017 02:00:00 4,8 3,6 0,5 10,3 10,1 2 1 5 3 ZZO 1024,5 20 0 0,0
28.03.2017 01:00:00 5,4 4,2 1,1 10,2 10,1 0 0 9 5 N 1024,0 20 0 0,0
28.03.2017 00:00:00 6,5 4,0 2,7 10,2 10,1 2 1 10 5 WZW 1023,4 20 0 0,0
27.03.2017 23:00:00 8,5 5,8 3,7 10,2 10,1 0 0 4 2 N 1022,2 20 0 0,0
27.03.2017 22:00:00 10,0 6,3 6,2 10,1 10,1 3 2 7 4 O 1021,1 18 0 0,0
27.03.2017 21:00:00 10,5 6,4 8,1 10,1 10,1 5 3 8 5 ZW 1020,3 20 0 0,0
27.03.2017 20:00:00 13,4 6,0 10,0 10,0 10,1 2 1 8 4 NNO 1019,2 20 3 0,0
27.03.2017 19:00:00 14,7 6,5 13,6 10,0 10,1 7 4 19 10 WNW 1018,3 20 17 0,0
27.03.2017 18:00:00 15,6 7,1 16,2 10,0 10,1 13 7 21 11 W 1017,6 20 10 0,0
27.03.2017 17:00:00 15,7 3,1 15,3 10,0 10,1 10 6 35 19 OZO 1017,1 20 0 0,0
27.03.2017 16:00:00 15,9 3,3 16,4 9,9 10,1 19 11 36 20 ZO 1016,7 20 0 0,0
27.03.2017 15:00:00 16,2 3,3 15,1 9,9 10,1 19 11 40 21 ZZO 1017,0 20 0 0,0
27.03.2017 14:00:00 14,5 7,1 14,8 9,9 10,1 11 6 24 13 O 1017,2 20 0 0,0
27.03.2017 13:00:00 15,7 1,4 15,4 9,9 10,1 9 5 32 17 OZO 1016,7 20 0 0,0
27.03.2017 12:00:00 17,5 0,2 17,4 9,9 10,1 25 14 48 26 Z 1016,2 20 38 0,0
27.03.2017 11:00:00 16,7 1,9 11,5 9,9 10,1 20 11 36 19 ZZO 1015,7 20 8 0,0
27.03.2017 10:00:00 7,7 4,5 5,6 10,0 10,1 3 2 11 6 N 1016,6 20 6 0,0
27.03.2017 09:00:00 5,9 2,2 4,4 10,1 10,1 4 2 9 5 NNW 1016,3 20 0 0,0
27.03.2017 08:00:00 5,7 1,6 4,1 10,1 10,1 5 3 9 5 W 1015,4 20 0 0,0
27.03.2017 07:00:00 5,4 2,0 3,6 10,2 10,1 4 2 9 5 W 1015,2 20 0 0,0
27.03.2017 06:00:00 4,7 1,7 3,1 10,3 10,1 7 4 9 5 WNW 1015,3 20 0 0,0
27.03.2017 05:00:00 5,2 0,8 2,4 10,3 10,1 0 0 7 4 N 1015,3 20 0 0,0
27.03.2017 04:00:00 3,9 0,8 1,0 10,4 10,1 6 4 15 8 ZZW 1016,2 20 0 0,0
27.03.2017 03:00:00 5,3 0,1 1,5 10,4 10,1 3 2 24 13 WZW 1016,6 20 0 0,0
27.03.2017 02:00:00 7,1 0,3 5,0 10,4 10,1 12 6 32 18 OZO 1017,0 20 0 0,0
27.03.2017 01:00:00 7,6 1,2 5,1 10,3 10,1 12 6 28 15 OZO 1017,0 20 0 0,0
27.03.2017 00:00:00 8,1 1,9 5,4 10,4 10,1 12 6 20 11 OZO 1017,2 20 0 0,0
26.03.2017 23:00:00 9,5 4,7 5,4 9,9 10,1 13 7 18 10 ZO 1017,1 20 0 0,0
26.03.2017 22:00:00 11,4 6,5 8,0 9,3 10,1 5 3 14 8 ZO 1016,4 20 0 0,0
26.03.2017 21:00:00 13,1 7,1 10,2 9,3 10,1 5 3 29 16 OZO 1015,5 20 0 0,0
26.03.2017 20:00:00 14,8 7,3 13,7 9,3 10,2 15 8 33 18 ONO 1014,8 20 54 0,0
26.03.2017 19:00:00 16,2 6,9 17,1 9,2 10,2 19 10 38 20 O 1014,2 20 52 0,0
26.03.2017 18:00:00 17,6 4,5 21,2 9,3 10,1 19 10 31 17 ONO 1014,1 20 60 0,0
26.03.2017 17:00:00 18,6 4,4 24,9 9,1 10,1 16 8 32 18 ONO 1013,9 20 60 0,0
26.03.2017 16:00:00 19,0 4,0 25,0 9,2 10,1 9 5 23 13 ONO 1014,4 20 60 0,0
26.03.2017 15:00:00 19,0 -0,4 26,7 8,8 10,1 9 5 22 12 OZO 1014,8 20 60 0,0
26.03.2017 14:00:00 18,6 4,7 21,0 8,7 10,1 8 4 21 11 ONO 1015,3 20 52 0,0
26.03.2017 13:00:00 16,4 1,7 19,9 8,5 10,2 8 5 14 8 O 1016,3 20 15 0,0
26.03.2017 12:00:00 16,6 4,6 19,6 8,8 10,2 5 3 11 6 NO 1016,2 20 60 0,0
26.03.2017 11:00:00 12,9 3,5 15,2 9,1 10,2 7 4 11 6 ZO 1016,8 20 60 0,0
26.03.2017 10:00:00 9,7 2,5 6,9 9,3 10,2 7 4 22 12 ZZO 1016,9 20 58 0,0
26.03.2017 09:00:00 6,3 1,4 -2,0 9,4 10,2 6 4 17 9 ZO 1016,9 20 51 0,0
26.03.2017 08:00:00 0,8 -1,6 -2,4 9,4 10,2 0 0 9 5 N 1017,5 20 0 0,0
26.03.2017 07:00:00 0,8 -1,4 -2,2 9,5 10,2 2 1 7 4 WZW 1017,0 20 0 0,0
26.03.2017 06:00:00 1,9 -1,7 -0,6 9,6 10,2 4 2 18 10 ZZO 1016,7 20 0 0,0
26.03.2017 05:00:00 3,0 -1,2 0,5 9,6 10,2 3 2 23 12 OZO 1016,7 20 0 0,0
26.03.2017 04:00:00 4,6 -1,0 -0,3 9,7 10,2 9 5 18 10 ZO 1016,7 20 0 0,0
26.03.2017 03:00:00 4,8 -1,4 -0,2 9,7 10,2 10 6 20 11 ZO 1016,9 20 0 0,0
26.03.2017 02:00:00 5,2 -1,3 1,0 9,7 10,2 13 7 20 11 ZZO 1016,8 20 0 0,0
26.03.2017 01:00:00 4,5 -0,3 -1,6 9,8 10,2 7 4 18 10 ZO 1017,1 20 0 0,0
26.03.2017 00:00:00 2,8 -0,8 -0,4 9,8 10,2 5 3 17 9 ZZW 1017,2 20 0 0,0
25.03.2017 23:00:00 4,3 0,1 -0,3 9,7 10,2 7 4 12 6 ZZO 1016,6 20 0 0,0
25.03.2017 22:00:00 4,2 -0,4 0,3 9,7 10,2 2 1 19 10 O 1015,5 20 0 0,0
25.03.2017 21:00:00 7,0 -0,9 2,7 9,6 10,3 5 3 24 13 Z 1013,5 20 0 0,0
25.03.2017 20:00:00 10,0 -3,0 7,1 9,5 10,2 13 7 31 17 ZO 1011,9 20 8 0,0
25.03.2017 19:00:00 11,9 -2,0 11,4 9,4 10,3 18 10 32 17 ZO 1010,7 20 25 0,0
25.03.2017 18:00:00 13,3 0,0 15,0 9,4 10,3 14 8 35 19 OZO 1010,1 19 53 0,0
25.03.2017 17:00:00 12,6 0,0 14,2 8,9 10,3 9 5 18 10 ZO 1010,0 20 7 0,0
25.03.2017 16:00:00 11,6 4,8 15,5 9,3 10,3 10 6 22 12 NW 1009,7 20 47 0,0
25.03.2017 15:00:00 9,6 4,8 16,3 9,1 10,3 5 3 15 8 NW 1010,2 20 48 0,0
25.03.2017 14:00:00 8,2 5,3 13,0 9,4 10,3 0 0 12 6 N 1010,0 20 51 0,0
25.03.2017 13:00:00 5,3 3,9 4,0 9,6 10,3 2 1 8 5 ZO 1010,4 20 2 1,0
25.03.2017 12:00:00 3,0 2,3 3,7 9,7 10,3 8 4 21 11 ZO 1011,3 8 0 0,6
25.03.2017 11:00:00 1,8 1,7 0,1 9,7 10,3 7 4 14 8 ZZO 1011,1 20 0 0,6
25.03.2017 10:00:00 0,5 0,2 0,1 9,8 10,3 9 5 16 9 Z 1011,9 2,2 0 3,8
25.03.2017 09:00:00 0,9 0,6 0,1 9,9 10,3 2 1 6 3 ZZW 1012,3 6 0 1,4
25.03.2017 08:00:00 0,6 0,3 0,1 9,9 10,3 4 2 9 5 ZO 1012,6 6 0 2,0
25.03.2017 07:00:00 0,9 0,5 0,4 10,0 10,3 4 2 9 5 ZO 1012,6 9 0 1,4
25.03.2017 06:00:00 0,8 0,2 0,1 10,1 10,3 5 3 7 4 ZZO 1013,2 10 0 2,0
25.03.2017 05:00:00 1,5 0,9 1,0 10,1 10,3 3 1 6 3 Z 1014,3 4,8 0 2,1
25.03.2017 04:00:00 2,3 1,9 2,3 10,2 10,3 0 0 4 2 N 1015,1 7 0 1,2
25.03.2017 03:00:00 2,5 2,1 2,4 10,3 10,3 2 1 5 3 O 1015,8 10 0 0,8
25.03.2017 02:00:00 2,5 1,9 2,1 10,3 10,3 0 0 4 2 N 1017,1 11 0 1,6
25.03.2017 01:00:00 2,4 1,7 1,9 10,4 10,3 0 0 8 4 N 1017,8 6 0 3,2
25.03.2017 00:00:00 2,7 2,0 2,6 10,4 10,3 5 3 11 6 OZO 1018,6 15 0 0,6
24.03.2017 23:00:00 3,0 2,0 2,8 10,4 10,3 8 4 12 7 Z 1019,3 13 0 3,1
24.03.2017 22:00:00 3,8 2,9 3,6 10,4 10,3 7 4 12 6 ZZO 1019,5 9 0 1,8
24.03.2017 21:00:00 4,3 3,0 3,9 10,3 10,3 8 4 13 7 Z 1019,4 14 0 2,0
24.03.2017 20:00:00 5,0 3,0 4,2 10,3 10,3 9 5 22 12 ZZO 1019,2 9 0 1,6
24.03.2017 19:00:00 7,9 2,6 6,0 10,2 10,3 9 5 21 11 NO 1017,3 20 0 0,0
24.03.2017 18:00:00 9,5 2,3 10,2 10,1 10,3 4 2 13 7 NNW 1016,6 20 0 0,0
24.03.2017 17:00:00 9,8 3,3 11,2 10,0 10,3 9 5 14 8 NNW 1016,6 20 0 0,0
24.03.2017 16:00:00 10,4 3,2 12,9 9,9 10,3 9 5 19 10 NNO 1016,4 20 0 0,0
24.03.2017 15:00:00 10,9 2,5 15,5 10,0 10,3 9 5 18 10 N 1015,9 20 0 0,0
24.03.2017 14:00:00 10,4 3,9 11,7 10,0 10,3 4 2 14 8 N 1016,0 20 0 0,0
24.03.2017 13:00:00 8,8 2,4 11,8 10,0 10,3 6 3 9 5 NW 1016,3 20 2 0,0
24.03.2017 12:00:00 8,1 1,5 10,3 10,0 10,3 5 3 9 5 NNO 1016,7 20 22 0,0
24.03.2017 11:00:00 5,7 1,8 5,7 10,2 10,3 3 2 9 5 WNW 1016,8 20 25 0,0
24.03.2017 10:00:00 3,3 0,9 -0,5 10,3 10,3 2 1 16 9 O 1016,5 20 9 0,0
24.03.2017 09:00:00 -0,1 -0,7 -2,7 10,4 10,3 6 3 13 7 ZO 1017,1 20 1 0,0
24.03.2017 08:00:00 0,8 -0,7 -2,6 10,5 10,3 4 2 19 10 OZO 1016,2 20 0 0,0
24.03.2017 07:00:00 -0,7 -1,1 -2,6 10,6 10,3 3 1 11 6 WNW 1015,7 11 0 0,0
24.03.2017 06:00:00 0,0 -0,3 -2,3 10,7 10,3 4 2 8 4 Z 1015,9 9 0 0,0
24.03.2017 05:00:00 0,0 -0,3 -4,1 10,8 10,3 4 2 6 3 Z 1015,7 7 0 0,0
24.03.2017 04:00:00 -0,5 -1,1 -3,4 10,8 10,3 5 3 7 4 ZW 1015,8 7 0 0,0
24.03.2017 03:00:00 1,1 0,8 -2,9 10,9 10,3 3 1 6 3 W 1015,4 6 0 0,0
24.03.2017 02:00:00 2,2 1,8 -1,9 10,9 10,3 5 3 7 4 Z 1015,1 19 0 0,0
24.03.2017 01:00:00 2,4 1,5 -0,3 10,9 10,3 0 0 4 2 N 1015,1 19 0 0,0
24.03.2017 00:00:00 3,6 2,4 0,5 10,9 10,3 0 0 8 5 N 1014,7 13 0 0,0
23.03.2017 23:00:00 3,6 1,3 0,4 10,9 10,3 0 0 16 8 N 1014,0 19 0 0,0
23.03.2017 22:00:00 5,9 3,1 2,6 10,8 10,3 5 3 10 5 OZO 1013,2 20 0 0,0
23.03.2017 21:00:00 - - - - - - - - - - - - - -

tt = temperatuur
td = dauwpunt
tt 5cm = temperatuur 5cm
tt -20cm = temperatuur -20cm
tt -100cm = temperatuur -100cm
ff = windsnelheid
fx = windstoten
dd = windrichting
ppp = luchtdruk
vv = zicht
sd = Zonneschijnduur
rr = neerslag

Weerstations in de omgeving